Location: Colebrook
(42.0017°N, 73.0973°W)
Time: 20:53:48
(UTC-04:00)

ISS - Pass Details

Date: 29 September 2021
Orbit: 417 x 423 km, 51.6° (Epoch: 21 October)

Event Time Altitude Azimuth Distance (km) Brightness Sun altitude
Rises 20:27:08 0° 308° (NW) 2,366 1.3 -21.1°
Reaches altitude 10° 20:29:22 10° 318° (NW) 1,501 -0.2 -21.5°
Enters shadow 20:31:46 29° 359° (N) 802 -2.2 -21.9°
